Christchurch, New Zealand

2:11 PM NZST on August 19, 2017 (GMT +1200)
Christchurch

Weather History for 93780 - July, 2013

Change the Weather History Date:

Tuesday, July 2, 2013

  Actual Average Record
Temperature  
Mean Temperature 60 °F -  
Max Temperature 66 °F 49 °F - ()
Min Temperature 53 °F 32 °F - ()
Degree Days  
Heating Degree Days 6    
Growing Degree Days 10 (Base 50)    
Moisture  
Dew Point 37 °F    
Average Humidity 43    
Maximum Humidity 54    
Minimum Humidity 34    
Precipitation  
Precipitation 0.00 in - - ()
Sea Level Pressure  
Sea Level Pressure 29.91 in    
Wind  
Wind Speed 11 mph ()    
Max Wind Speed 21 mph    
Max Gust Speed 29 mph    
T = Trace of Precipitation, MM = Missing Value Source: Averaged Metar Reports

Daily Weather History Graph

Daily Weather History Graph

Search for Another Location

Airport or City:

Trip Planner

Search our weather history database for the weather conditions in past years. The results will help you decide how hot, cold, wet, or windy it might be!

Date:

Astronomy

Jul. 02, 2013 Rise Set
Actual Time 8:03 AM NZST 5:04 PM NZST
Civil Twilight 7:30 AM NZST 5:36 PM NZST
Nautical Twilight 6:54 AM NZST 6:12 PM NZST
Astronomical Twilight 6:20 AM NZST 6:47 PM NZST
Moon 2:10 AM NZST (7/2) 12:52 PM NZST (7/2)
Length of Visible Light 10h 05m
Length of Day
9h 00m
Waning Crescent, 32% of the Moon is Illuminated
Jul 2
Waning Crescent
Jul 8
New
Jul 16
First Quarter
Jul 23
Full
Jul 30
Last Quarter

Hourly Weather History & Observations

Time (NZST) Temp. Dew Point Humidity Pressure Visibility Wind Dir Wind Speed Gust Speed Precip Events Conditions
12:00 AM 57.2 °F 35.6 °F 44% 29.92 in - NW 10.4 mph - N/A   Clear
1:00 AM 59.0 °F 35.6 °F 42% 29.89 in - NW 13.8 mph - N/A   Clear
2:00 AM 55.4 °F 35.6 °F 47% 29.89 in - WNW 8.1 mph - N/A   Clear
3:00 AM 57.2 °F 37.4 °F 48% 29.89 in - NW 8.1 mph - N/A   Clear
4:00 AM 60.8 °F 35.6 °F 39% 29.89 in - NW 15.0 mph - N/A   Clear
5:00 AM 62.6 °F 33.8 °F 34% 29.86 in - WNW 17.3 mph 28.8 mph N/A   Clear
6:00 AM 59.0 °F 35.6 °F 42% 29.86 in - NNW 8.1 mph - N/A   Clear
7:00 AM 60.8 °F 35.6 °F 39% 29.86 in - North 5.8 mph - N/A   Clear
8:00 AM 57.2 °F 37.4 °F 48% 29.86 in - North 5.8 mph - N/A   Clear
9:00 AM 62.6 °F 35.6 °F 37% 29.89 in - NW 18.4 mph - N/A   Clear
10:00 AM 62.6 °F 37.4 °F 39% 29.92 in - NW 13.8 mph - N/A   Clear
11:00 AM 64.4 °F 37.4 °F 37% 29.92 in - NNW 15.0 mph - N/A   Clear
12:00 PM 66.2 °F 37.4 °F 35% 29.92 in - NNW 17.3 mph - N/A   Clear
1:00 PM 66.2 °F 37.4 °F 35% 29.92 in - NNW 20.7 mph - N/A   Clear
2:00 PM 66.2 °F 37.4 °F 35% 29.92 in - NW 19.6 mph - N/A   Clear
3:00 PM 66.2 °F 37.4 °F 35% 29.92 in - NW 15.0 mph - N/A   Clear
4:00 PM 64.4 °F 39.2 °F 40% 29.95 in - NNW 10.4 mph - N/A   Clear
5:00 PM 60.8 °F 39.2 °F 45% 29.95 in - NNW 11.5 mph - N/A   Clear
6:00 PM 57.2 °F 37.4 °F 48% 29.95 in - North 6.9 mph - N/A   Clear
7:00 PM 57.2 °F 39.2 °F 51% 29.95 in - North 9.2 mph - N/A   Clear
8:00 PM 55.4 °F 39.2 °F 54% 29.95 in - NNW 11.5 mph - N/A   Clear
9:00 PM 55.4 °F 39.2 °F 54% 29.95 in - NNW 12.7 mph - N/A   Clear
10:00 PM 53.6 °F 37.4 °F 54% 29.92 in - North 9.2 mph - N/A   Clear
11:00 PM 55.4 °F 39.2 °F 54% 29.92 in - North 9.2 mph - N/A   Clear